This is the latest recevied weather packets stored in our database for station/object KK4WXG. If no packets are shown the sender has not sent any weather packets the latest 10 day(s).
| Time | Temp. | Humidity | Pressure | Rain* | Wind** | Luminosity | Snow |
|---|---|---|---|---|---|---|---|
| 1777498091 | 13.89° C | 94% | 1007.6 hPa | 5.33 mm | - | 14 W/m² | - |
| 1777497788 | 13.89° C | 94% | 1007.9 hPa | 4.83 mm | - | 15 W/m² | - |
| 1777497484 | 14.44° C | 94% | 1007.8 hPa | 3.05 mm | - | 16 W/m² | - |
| 1777497180 | 14.44° C | 93% | 1007.6 hPa | 2.29 mm | - | 20 W/m² | - |
| 1777496877 | 14.44° C | 93% | 1007.6 hPa | 1.27 mm | - | 22 W/m² | - |
| 1777496574 | 14.44° C | 93% | 1007.6 hPa | 0 mm | - | 21 W/m² | - |
| 1777496270 | 14.44° C | 92% | 1007.6 hPa | 0 mm | - | 26 W/m² | - |
| 1777495966 | 14.44° C | 92% | 1007.5 hPa | 0 mm | - | 36 W/m² | - |
| 1777495662 | 14.44° C | 92% | 1007.6 hPa | 0 mm | - | 40 W/m² | - |
| 1777495359 | 14.44° C | 92% | 1007.5 hPa | 0.51 mm | - | 45 W/m² | - |
| 1777495056 | 14.44° C | 92% | 1007.7 hPa | 0.51 mm | - | 53 W/m² | - |
| 1777494753 | 14.44° C | 91% | 1007.5 hPa | 0 mm | - | 49 W/m² | - |
| 1777494450 | 14.44° C | 91% | 1007.8 hPa | 0.51 mm | - | 61 W/m² | - |
| 1777494146 | 15° C | 91% | 1007.6 hPa | 0.51 mm | - | 62 W/m² | - |
| 1777493844 | 15° C | 90% | 1007.5 hPa | 0 mm | - | 70 W/m² | - |
| 1777493542 | 15° C | 91% | 1007.7 hPa | 0 mm | - | 57 W/m² | - |
| 1777493239 | 15° C | 90% | 1007.7 hPa | 0 mm | - | 55 W/m² | - |
| 1777492935 | 15° C | 90% | 1007.7 hPa | 0 mm | - | 56 W/m² | - |
| 1777492633 | 15° C | 90% | 1007.9 hPa | 0 mm | - | 70 W/m² | - |
| 1777492327 | 15° C | 89% | 1008.1 hPa | 0 mm | - | 82 W/m² | - |
| 1777492024 | 15° C | 90% | 1007.9 hPa | 0 mm | - | 174 W/m² | - |
| 1777491721 | 15° C | 89% | 1008.2 hPa | 0 mm | - | 146 W/m² | - |
| 1777491418 | 15.56° C | 91% | 1008.5 hPa | 0 mm | - | 125 W/m² | - |
| 1777491115 | 15° C | 91% | 1008.3 hPa | 0 mm | - | 182 W/m² | - |
| 1777490810 | 15° C | 92% | 1008.2 hPa | 0 mm | - | 246 W/m² | - |
* Rain latest hour (hover to see other rain measurements)
** Current wind speed in m/s (hover to see current wind gust speed)